| time (UTC) | temp C | wind direction | speed KPH | gust KPH | rain 1hr cm | rain 24hr cm | rain mn cm | humidity % | barometer mb |
| 20260504233000 | 10 | 0 | 0.0 | 0.0 | 0.00 | 0.00 | 0.00 | 77 | 1011.4 |
| 20260504232001 | 10 | 0 | 0.0 | 0.0 | 0.00 | 0.00 | 0.00 | 77 | 1011.4 |
| 20260504231500 | 10 | 0 | 0.0 | 0.0 | 0.00 | 0.00 | 0.00 | 77 | 1011.4 |
| 20260504231000 | 10 | 0 | 0.0 | 0.0 | 0.00 | 0.00 | 0.00 | 77 | 1011.5 |
| 20260504230501 | 10 | 0 | 0.0 | 0.0 | 0.00 | 0.00 | 0.00 | 76 | 1011.5 |
| 20260504225500 | 10 | 0 | 0.0 | 0.0 | 0.00 | 0.00 | 0.00 | 77 | 1011.6 |
| 20260504224500 | 11 | 0 | 0.0 | 0.0 | 0.00 | 0.00 | 0.00 | 77 | 1011.8 |
| 20260504224000 | 11 | 0 | 0.0 | 0.0 | 0.00 | 0.00 | 0.00 | 77 | 1011.8 |
| 20260504223500 | 11 | 0 | 0.0 | 0.0 | 0.00 | 0.00 | 0.00 | 77 | 1011.8 |
| 20260504223001 | 11 | 0 | 0.0 | 0.0 | 0.00 | 0.00 | 0.00 | 77 | 1011.8 |
| 20260504222501 | 11 | 0 | 0.0 | 0.0 | 0.00 | 0.00 | 0.00 | 77 | 1011.8 |
| 20260504222001 | 11 | 0 | 0.0 | 0.0 | 0.00 | 0.00 | 0.00 | 77 | 1011.8 |
| 20260504221501 | 11 | 0 | 0.0 | 0.0 | 0.00 | 0.00 | 0.00 | 77 | 1011.8 |
| 20260504220501 | 11 | 0 | 0.0 | 0.0 | 0.00 | 0.00 | 0.00 | 77 | 1011.8 |
| 20260504220002 | 11 | 0 | 0.0 | 0.0 | 0.00 | 0.00 | 0.00 | 77 | 1011.8 |
| 20260504215500 | 11 | 0 | 0.0 | 0.0 | 0.00 | 0.00 | 0.00 | 77 | 1011.8 |
| 20260504215000 | 11 | 0 | 0.0 | 0.0 | 0.00 | 0.00 | 0.00 | 76 | 1011.9 |
| 20260504214500 | 11 | 0 | 0.0 | 0.0 | 0.00 | 0.00 | 0.00 | 77 | 1011.8 |
| 20260504214001 | 12 | 0 | 0.0 | 0.0 | 0.00 | 0.00 | 0.00 | 77 | 1011.8 |
| 20260504213500 | 12 | 0 | 0.0 | 0.0 | 0.00 | 0.00 | 0.00 | 76 | 1011.8 |
| 20260504213002 | 12 | 0 | 0.0 | 0.0 | 0.00 | 0.00 | 0.00 | 76 | 1011.8 |
| 20260504212501 | 12 | 0 | 0.0 | 0.0 | 0.00 | 0.00 | 0.00 | 76 | 1011.9 |
| 20260504212000 | 12 | 0 | 0.0 | 0.0 | 0.00 | 0.00 | 0.00 | 76 | 1011.8 |
| 20260504211500 | 12 | 0 | 0.0 | 0.0 | 0.00 | 0.00 | 0.00 | 75 | 1011.8 |
| 20260504211000 | 12 | 0 | 0.0 | 0.0 | 0.00 | 0.00 | 0.00 | 75 | 1011.8 |
| 20260504210003 | 12 | 0 | 0.0 | 0.0 | 0.00 | 0.00 | 0.00 | 74 | 1011.8 |
| 20260504205501 | 13 | 0 | 0.0 | 0.0 | 0.00 | 0.00 | 0.00 | 74 | 1011.8 |
| 20260504205002 | 13 | 0 | 0.0 | 0.0 | 0.00 | 0.00 | 0.00 | 74 | 1011.8 |
| 20260504204501 | 13 | 0 | 0.0 | 0.0 | 0.00 | 0.00 | 0.00 | 75 | 1011.8 |
| 20260504204001 | 12 | 0 | 0.0 | 0.0 | 0.00 | 0.00 | 0.00 | 75 | 1011.8 |
| 20260504203501 | 13 | 0 | 0.0 | 0.0 | 0.00 | 0.00 | 0.00 | 75 | 1011.8 |
| 20260504203001 | 13 | 0 | 0.0 | 0.0 | 0.00 | 0.00 | 0.00 | 75 | 1011.8 |
| 20260504202503 | 13 | 0 | 0.0 | 0.0 | 0.00 | 0.00 | 0.00 | 74 | 1011.8 |
| 20260504202001 | 13 | 0 | 0.0 | 0.0 | 0.00 | 0.00 | 0.00 | 74 | 1011.8 |
| 20260504201501 | 13 | 0 | 0.0 | 0.0 | 0.00 | 0.00 | 0.00 | 73 | 1011.8 |
| 20260504201001 | 13 | 0 | 0.0 | 0.0 | 0.00 | 0.00 | 0.00 | 72 | 1011.7 |
| 20260504200001 | 14 | 0 | 0.0 | 0.0 | 0.00 | 0.00 | 0.00 | 71 | 1011.7 |
| 20260504195501 | 14 | 0 | 0.0 | 0.0 | 0.00 | 0.00 | 0.00 | 70 | 1011.6 |
| 20260504195001 | 15 | 0 | 0.0 | 0.0 | 0.00 | 0.00 | 0.00 | 70 | 1011.7 |
| 20260504194501 | 15 | 0 | 0.0 | 0.0 | 0.00 | 0.00 | 0.00 | 69 | 1011.6 |
| 20260504194003 | 15 | 0 | 0.0 | 0.0 | 0.00 | 0.00 | 0.00 | 69 | 1011.6 |
| 20260504193501 | 15 | 0 | 0.0 | 0.0 | 0.00 | 0.00 | 0.00 | 68 | 1011.5 |
| 20260504193001 | 15 | 0 | 0.0 | 0.0 | 0.00 | 0.00 | 0.00 | 67 | 1011.6 |
| 20260504192002 | 15 | 0 | 0.0 | 0.0 | 0.00 | 0.00 | 0.00 | 66 | 1011.6 |
| 20260504191502 | 16 | 0 | 0.0 | 0.0 | 0.00 | 0.00 | 0.00 | 65 | 1011.6 |
| 20260504190502 | 16 | 0 | 0.0 | 0.0 | 0.00 | 0.00 | 0.00 | 64 | 1011.5 |
| 20260504190002 | 16 | 0 | 0.0 | 0.0 | 0.00 | 0.00 | 0.00 | 63 | 1011.5 |
| 20260504185501 | 16 | 0 | 0.0 | 0.0 | 0.00 | 0.00 | 0.00 | 63 | 1011.5 |
| 20260504185001 | 16 | 0 | 0.0 | 0.0 | 0.00 | 0.00 | 0.00 | 62 | 1011.4 |
| 20260504183502 | 17 | 0 | 0.0 | 0.0 | 0.00 | 0.00 | 0.00 | 58 | 1011.3 |
| 20260504182503 | 18 | 0 | 0.0 | 0.0 | 0.00 | 0.00 | 0.00 | 56 | 1011.2 |
| 20260504182002 | 18 | 0 | 0.0 | 0.0 | 0.00 | 0.00 | 0.00 | 55 | 1011.2 |
| 20260504181001 | 20 | 0 | 0.0 | 0.0 | 0.00 | 0.00 | 0.00 | 51 | 1011.2 |
| 20260504180502 | 20 | 0 | 0.0 | 0.0 | 0.00 | 0.00 | 0.00 | 49 | 1011.1 |
| 20260504180002 | 21 | 0 | 0.0 | 0.0 | 0.00 | 0.00 | 0.00 | 48 | 1011.1 |
| 20260504175501 | 21 | 0 | 0.0 | 0.0 | 0.00 | 0.00 | 0.00 | 48 | 1011.1 |
| 20260504175001 | 21 | 0 | 0.0 | 0.0 | 0.00 | 0.00 | 0.00 | 47 | 1011.1 |
| 20260504174001 | 21 | 0 | 0.0 | 0.0 | 0.00 | 0.00 | 0.00 | 46 | 1011.1 |
| 20260504172002 | 22 | 0 | 0.0 | 0.0 | 0.00 | 0.00 | 0.00 | 47 | 1011.0 |
| 20260504171501 | 22 | 0 | 0.0 | 0.0 | 0.00 | 0.00 | 0.00 | 48 | 1010.9 |
| 20260504171001 | 22 | 0 | 0.0 | 0.0 | 0.00 | 0.00 | 0.00 | 45 | 1010.9 |
| 20260504170502 | 23 | 0 | 0.0 | 0.0 | 0.00 | 0.00 | 0.00 | 45 | 1010.9 |
| 20260504151002 | 25 | 0 | 0.0 | 0.0 | 0.00 | 0.00 | 0.00 | 42 | 1011.2 |
| 20260504150502 | 25 | 0 | 0.0 | 0.0 | 0.00 | 0.00 | 0.00 | 40 | 1011.2 |
| 20260504140502 | 25 | 0 | 0.0 | 0.0 | 0.00 | 0.00 | 0.00 | 43 | 1011.8 |
| 20260504130502 | 25 | 0 | 0.0 | 0.0 | 0.00 | 0.00 | 0.00 | 38 | 1012.1 |
| 20260504110504 | 24 | 0 | 0.0 | 0.0 | 0.00 | 0.00 | 0.00 | 41 | 1013.3 |
| 20260504100503 | 25 | 0 | 0.0 | 0.0 | 0.00 | 0.00 | 0.00 | 40 | 1014.1 |
| 20260504082003 | 22 | 0 | 0.0 | 0.0 | 0.00 | 0.00 | 0.00 | 42 | 1014.6 |
| 20260504081504 | 22 | 0 | 0.0 | 0.0 | 0.00 | 0.00 | 0.00 | 43 | 1014.6 |
| 20260504081003 | 22 | 0 | 0.0 | 0.0 | 0.00 | 0.00 | 0.00 | 44 | 1014.6 |
| 20260504080504 | 22 | 0 | 0.0 | 0.0 | 0.00 | 0.00 | 0.00 | 43 | 1014.6 |
| 20260504050504 | 11 | 0 | 0.0 | 0.0 | 0.00 | 0.00 | 0.00 | 68 | 1014.5 |
| 20260504050004 | 11 | 0 | 0.0 | 0.0 | 0.00 | 0.00 | 0.00 | 69 | 1014.5 |
| 20260504045505 | 10 | 0 | 0.0 | 0.0 | 0.00 | 0.00 | 0.00 | 70 | 1014.6 |
| 20260504045004 | 10 | 0 | 0.0 | 0.0 | 0.00 | 0.00 | 0.00 | 72 | 1014.6 |
| 20260504044505 | 10 | 0 | 0.0 | 0.0 | 0.00 | 0.00 | 0.00 | 74 | 1014.5 |
| 20260504044004 | 8 | 0 | 0.0 | 0.0 | 0.00 | 0.00 | 0.00 | 76 | 1014.4 |
| 20260504043504 | 8 | 0 | 0.0 | 0.0 | 0.00 | 0.00 | 0.00 | 78 | 1014.3 |
| 20260504042506 | 7 | 0 | 0.0 | 0.0 | 0.00 | 0.00 | 0.00 | 79 | 1014.2 |
| 20260504042004 | 7 | 0 | 0.0 | 0.0 | 0.00 | 0.00 | 0.00 | 79 | 1014.3 |
| 20260504041504 | 6 | 0 | 0.0 | 0.0 | 0.00 | 0.00 | 0.00 | 79 | 1014.3 |
| 20260504041004 | 6 | 0 | 0.0 | 0.0 | 0.00 | 0.00 | 0.00 | 79 | 1014.3 |
| 20260504040504 | 6 | 0 | 0.0 | 0.0 | 0.00 | 0.00 | 0.00 | 79 | 1014.3 |
| 20260504040004 | 6 | 0 | 0.0 | 0.0 | 0.00 | 0.00 | 0.00 | 79 | 1014.3 |
| 20260504035506 | 6 | 0 | 0.0 | 0.0 | 0.00 | 0.00 | 0.00 | 79 | 1014.2 |
| 20260504035005 | 6 | 0 | 0.0 | 0.0 | 0.00 | 0.00 | 0.00 | 79 | 1014.2 |
| 20260504034005 | 6 | 0 | 0.0 | 0.0 | 0.00 | 0.00 | 0.00 | 78 | 1014.1 |
| 20260504033504 | 6 | 0 | 0.0 | 0.0 | 0.00 | 0.00 | 0.00 | 78 | 1014.2 |
| 20260504033004 | 6 | 0 | 0.0 | 0.0 | 0.00 | 0.00 | 0.00 | 78 | 1014.1 |
| 20260504032506 | 6 | 0 | 0.0 | 0.0 | 0.00 | 0.00 | 0.00 | 78 | 1014.0 |
| 20260504032005 | 7 | 0 | 0.0 | 0.0 | 0.00 | 0.00 | 0.00 | 77 | 1014.0 |
| 20260504031006 | 7 | 0 | 0.0 | 0.0 | 0.00 | 0.00 | 0.00 | 77 | 1014.0 |
| 20260504030005 | 7 | 0 | 0.0 | 0.0 | 0.00 | 0.00 | 0.00 | 77 | 1014.0 |
| 20260504025505 | 7 | 0 | 0.0 | 0.0 | 0.00 | 0.00 | 0.00 | 76 | 1013.9 |
| 20260504025004 | 7 | 0 | 0.0 | 0.0 | 0.00 | 0.00 | 0.00 | 76 | 1013.9 |
| 20260504024504 | 7 | 0 | 0.0 | 0.0 | 0.00 | 0.00 | 0.00 | 76 | 1013.9 |
| 20260504024006 | 7 | 0 | 0.0 | 0.0 | 0.00 | 0.00 | 0.00 | 77 | 1013.9 |
| 20260504023506 | 7 | 0 | 0.0 | 0.0 | 0.00 | 0.00 | 0.00 | 77 | 1013.8 |
| 20260504023006 | 7 | 0 | 0.0 | 0.0 | 0.00 | 0.00 | 0.00 | 77 | 1013.8 |
| 20260504022504 | 7 | 0 | 0.0 | 0.0 | 0.00 | 0.00 | 0.00 | 77 | 1013.8 |
| 20260504022005 | 7 | 0 | 0.0 | 0.0 | 0.00 | 0.00 | 0.00 | 77 | 1013.8 |
| 20260504021505 | 7 | 0 | 0.0 | 0.0 | 0.00 | 0.00 | 0.00 | 77 | 1013.8 |
| 20260504021006 | 7 | 0 | 0.0 | 0.0 | 0.00 | 0.00 | 0.00 | 76 | 1013.9 |
| 20260504020504 | 7 | 0 | 0.0 | 0.0 | 0.00 | 0.00 | 0.00 | 76 | 1013.9 |
| 20260504020006 | 7 | 0 | 0.0 | 0.0 | 0.00 | 0.00 | 0.00 | 75 | 1013.9 |
| 20260504015505 | 8 | 0 | 0.0 | 0.0 | 0.00 | 0.00 | 0.00 | 75 | 1014.0 |
| 20260504015005 | 8 | 0 | 0.0 | 0.0 | 0.00 | 0.00 | 0.00 | 74 | 1014.0 |
| 20260504014005 | 8 | 0 | 0.0 | 0.0 | 0.00 | 0.00 | 0.00 | 72 | 1014.0 |
| 20260504013505 | 8 | 0 | 0.0 | 0.0 | 0.00 | 0.00 | 0.00 | 71 | 1014.0 |
| 20260504013006 | 9 | 0 | 0.0 | 0.0 | 0.00 | 0.00 | 0.00 | 71 | 1014.0 |
| 20260504012505 | 9 | 0 | 0.0 | 0.0 | 0.00 | 0.00 | 0.00 | 69 | 1014.0 |
| 20260504012005 | 10 | 0 | 0.0 | 0.0 | 0.00 | 0.00 | 0.00 | 67 | 1014.0 |
| 20260504011505 | 10 | 0 | 0.0 | 0.0 | 0.00 | 0.00 | 0.00 | 66 | 1014.0 |
| 20260504011004 | 11 | 0 | 0.0 | 0.0 | 0.00 | 0.00 | 0.00 | 66 | 1014.0 |
| 20260504010005 | 10 | 0 | 0.0 | 0.0 | 0.00 | 0.00 | 0.00 | 69 | 1014.0 |
| 20260504005506 | 10 | 0 | 0.0 | 0.0 | 0.00 | 0.00 | 0.00 | 69 | 1014.0 |
| 20260504005005 | 9 | 0 | 0.0 | 0.0 | 0.00 | 0.00 | 0.00 | 70 | 1014.0 |
| 20260504004506 | 9 | 0 | 0.0 | 0.0 | 0.00 | 0.00 | 0.00 | 70 | 1014.0 |
| 20260504004006 | 9 | 0 | 0.0 | 0.0 | 0.00 | 0.00 | 0.00 | 71 | 1014.1 |
| 20260504003505 | 9 | 0 | 0.0 | 0.0 | 0.00 | 0.00 | 0.00 | 72 | 1014.1 |
| 20260504003006 | 9 | 0 | 0.0 | 0.0 | 0.00 | 0.00 | 0.00 | 73 | 1014.1 |
| 20260504002507 | 8 | 0 | 0.0 | 0.0 | 0.00 | 0.00 | 0.00 | 74 | 1014.1 |
| 20260504002006 | 8 | 0 | 0.0 | 0.0 | 0.00 | 0.00 | 0.00 | 75 | 1014.1 |
| 20260504001506 | 8 | 0 | 0.0 | 0.0 | 0.00 | 0.00 | 0.00 | 75 | 1014.2 |
| 20260504001005 | 8 | 0 | 0.0 | 0.0 | 0.00 | 0.00 | 0.00 | 77 | 1014.2 |
| 20260504000506 | 8 | 0 | 0.0 | 0.0 | 0.00 | 0.00 | 0.00 | 77 | 1014.2 |
| 20260504000005 | 8 | 0 | 0.0 | 0.0 | 0.00 | 0.00 | 0.00 | 77 | 1014.2 |
| 20260503235506 | 8 | 0 | 0.0 | 0.0 | 0.00 | 0.00 | 0.00 | 76 | 1014.3 |
| 20260503235005 | 8 | 0 | 0.0 | 0.0 | 0.00 | 0.00 | 0.00 | 76 | 1014.3 |
| 20260503234506 | 8 | 0 | 0.0 | 0.0 | 0.00 | 0.00 | 0.00 | 75 | 1014.3 |
| 20260503234006 | 8 | 0 | 0.0 | 0.0 | 0.00 | 0.00 | 0.00 | 75 | 1014.3 |
| 20260503233505 | 8 | 0 | 0.0 | 0.0 | 0.00 | 0.00 | 0.00 | 74 | 1014.3 |